Location: Bukowiec
(51.6830°N, 19.6670°E)
Time: 10:16:36
(UTC+01:00)

ISS - Visible Passes

Search period start: 29 November 2023 00:00
Search period end: 09 December 2023 00:00
Orbit: 416 x 418 km, 51.6° (Epoch: 29 November)

Date Brightness Start Highest point End Pass type
(mag) Time Alt. Az. Time Alt. Az. Time Alt. Az.
29 Nov -3.8 16:41:51 10° W 16:45:13 89° W 16:48:06 14° E visible
29 Nov -2.2 18:18:39 10° W 18:21:00 35° WSW 18:21:00 35° WSW visible
30 Nov -3.3 17:30:17 10° W 17:33:36 58° SSW 17:34:46 34° SE visible
30 Nov -0.2 19:07:35 10° W 19:07:42 11° W 19:07:42 11° W visible
01 Dec -3.6 16:41:53 10° W 16:45:15 72° SSW 16:48:35 10° ESE visible
01 Dec -1.7 18:18:53 10° W 18:21:32 24° SW 18:21:32 24° SW visible
02 Dec -2.2 17:30:18 10° W 17:33:23 34° SSW 17:35:28 17° SSE visible
03 Dec -2.7 16:41:46 10° W 16:45:01 46° SSW 16:48:14 10° SE visible
03 Dec -0.8 18:19:40 10° WSW 18:21:08 12° SW 18:22:32 10° SSW visible
04 Dec -1.0 17:30:28 10° W 17:32:51 18° SW 17:35:13 10° S visible
05 Dec -1.4 16:41:38 10° W 16:44:29 25° SSW 16:47:18 10° SSE visible
07 Dec -0.5 16:41:57 10° WSW 16:43:36 13° SW 16:45:15 10° S visible
